BRADLEY Weather Reports


time (UTC)temp
C
wind
direction
speed
KPH
gust
KPH
rain 1hr
cm
rain 24hr
cm
rain mn
cm
humidity
%
barometer
mb
20260505063003 11 360 0.0 3.2 0.00 0.00 0.00 51
20260505062003 10 360 1.6 4.8 0.00 0.00 0.00 51
20260505061002 11 360 1.6 3.2 0.00 0.00 0.00 51
20260505060003 11 360 1.6 4.8 0.00 0.00 0.00 51
20260505055003 11 360 1.6 3.2 0.00 0.00 0.00 51
20260505054003 11 360 0.0 4.8 0.00 0.00 0.00 51
20260505053003 11 360 1.6 4.8 0.00 0.00 0.00 51
20260505052003 11 360 0.0 3.2 0.00 0.00 0.00 51
20260505051003 11 360 1.6 3.2 0.00 0.00 0.00 51
20260505041003 11 360 1.6 4.8 0.00 0.00 0.00 51
20260505040003 11 360 1.6 4.8 0.00 0.00 0.00 51
20260505035002 11 360 1.6 4.8 0.00 0.00 0.00 51
20260505034002 11 360 3.2 6.4 0.00 0.00 0.00 51
20260505033003 11 360 3.2 9.7 0.00 0.00 0.00 51
20260505032003 11 360 3.2 8.0 0.00 0.00 0.00 51
20260505031003 11 360 3.2 6.4 0.00 0.00 0.00 51
20260505030003 11 360 1.6 4.8 0.00 0.00 0.00 51
20260505025003 12 360 1.6 4.8 0.00 0.00 0.00 51
20260505024003 12 360 1.6 3.2 0.00 0.00 0.00 52
20260505023004 11 360 1.6 4.8 0.00 0.00 0.00 51
20260505022003 12 360 3.2 6.4 0.00 0.00 0.00 52
20260505021003 12 360 3.2 9.7 0.00 0.00 0.00 52
20260505020003 12 360 3.2 9.7 0.00 0.00 0.00 52
20260505015002 13 360 4.8 8.0 0.00 0.00 0.00 53
20260505014002 13 360 4.8 8.0 0.00 0.00 0.00 53
20260505013003 13 360 4.8 9.7 0.00 0.00 0.00 53
20260505012003 14 360 4.8 11.3 0.00 0.00 0.00 54
20260505011003 14 360 4.8 11.3 0.00 0.00 0.00 54
20260505010004 14 360 4.8 8.0 0.00 0.00 0.00 54
20260505005002 15 360 4.8 8.0 0.00 0.00 0.00 55
20260505004003 15 360 3.2 8.0 0.00 0.00 0.00 55
20260505003003 15 360 3.2 8.0 0.00 0.00 0.00 55
20260505002003 15 360 3.2 8.0 0.00 0.00 0.00 55
20260505001003 15 360 4.8 11.3 0.00 0.00 0.00 55
20260505000004 15 360 4.8 8.0 0.00 0.00 0.00 55
20260504235002 16 360 3.2 8.0 0.00 0.00 0.00 55
20260504234002 16 360 4.8 8.0 0.00 0.00 0.00 55
20260504233003 16 360 4.8 14.5 0.00 0.00 0.00 55
20260504232003 16 360 3.2 9.7 0.00 0.00 0.00 55
20260504231003 16 360 6.4 9.7 0.00 0.00 0.00 56
20260504230004 17 360 4.8 16.1 0.00 0.00 0.00 56
20260504225003 17 360 4.8 14.5 0.00 0.00 0.00 56
20260504224002 17 360 3.2 9.7 0.00 0.00 0.00 56
20260504223002 17 360 6.4 11.3 0.00 0.00 0.00 56
20260504222003 17 360 6.4 11.3 0.00 0.00 0.00 56
20260504221003 16 360 6.4 16.1 0.00 0.00 0.00 56
20260504220004 16 360 4.8 8.0 0.00 0.00 0.00 56
20260504215003 16 360 4.8 9.7 0.00 0.00 0.00 56
20260504214003 17 360 3.2 9.7 0.00 0.00 0.00 56
20260504213003 16 360 6.4 12.9 0.00 0.00 0.00 56
20260504212003 17 360 4.8 12.9 0.00 0.00 0.00 56
20260504211002 17 360 4.8 9.7 0.00 0.00 0.00 56
20260504210004 17 360 4.8 9.7 0.00 0.00 0.00 56
20260504205003 16 360 3.2 8.0 0.00 0.00 0.00 56
20260504204004 17 360 3.2 11.3 0.00 0.00 0.00 56
20260504203003 16 360 3.2 9.7 0.00 0.00 0.00 56
20260504202002 16 360 3.2 8.0 0.00 0.00 0.00 56
20260504201002 16 360 3.2 9.7 0.00 0.00 0.00 56
20260504200002 16 360 1.6 9.7 0.00 0.00 0.00 55
20260504195003 16 360 3.2 8.0 0.00 0.00 0.00 55
20260504194003 16 360 3.2 11.3 0.00 0.00 0.00 55
20260504193003 15 360 3.2 8.0 0.00 0.00 0.00 55
20260504192003 15 360 1.6 8.0 0.00 0.00 0.00 55
20260504191003 15 360 1.6 6.4 0.00 0.00 0.00 55
20260504190003 15 360 3.2 8.0 0.00 0.00 0.00 54
20260504185003 13 360 3.2 6.4 0.00 0.00 0.00 53
20260504184003 13 360 3.2 6.4 0.00 0.00 0.00 53
20260504183003 13 115 0.0 3.2 0.00 0.00 0.00 53
20260504182003 13 360 0.0 3.2 0.00 0.00 0.00 53
20260504181003 12 55 0.0 1.6 0.00 0.00 0.00 52
20260504180003 12 0 0.0 3.2 0.00 0.00 0.00 52
20260504175003 12 360 1.6 3.2 0.00 0.00 0.00 52
20260504174003 12 360 0.0 1.6 0.00 0.00 0.00 52
20260504173003 12 360 0.0 1.6 0.00 0.00 0.00 52
20260504172003 11 360 0.0 4.8 0.00 0.00 0.00 51
20260504171003 11 360 0.0 4.8 0.00 0.00 0.00 51
20260504151003 10 360 0.0 1.6 0.00 0.00 0.00 50
20260504141003 10 360 1.6 4.8 0.00 0.00 0.00 50
20260504082003 12 360 1.6 3.2 0.00 0.00 0.00 53
20260504081002 13 360 1.6 3.2 0.00 0.00 0.00 53